Location: Mountain Grove
(34.0887°N, 86.6172°W)
Time: 22:08:46
(UTC+00:00)

Gbstr 26 Del rocket - Pass Details

Date: 14 July 2020
Orbit: 492 x 1264 km, 51.8° (Epoch: 08 August)

Event Time Altitude Azimuth Distance (km) Brightness Sun altitude
Rises 01:19:34 0° 206° (SSW) 2,829 6.4 -4.5°
Reaches altitude 10° 01:22:06 10° 198° (SSW) 1,838 5.4 -5.0°
Maximum altitude 01:25:48 34° 132° (SE) 858 3.3 -5.7°
Drops below altitude 10° 01:29:14 10° 65° (ENE) 1,692 5.0 -6.3°
Sets 01:31:28 0° 56° (NE) 2,567 6.0 -6.7°
